Regional Weather Roundup
Issued by NWS

Home | Current Version | Previous Version | Graphics & Text | Print | Product List | Glossary On
Versions: 1 2 3 4 5 6 7 8 9 10 11 12 13 14 15 16 17 18 19 20 21 22 23 24 25 26 27 28 29 30 31 32 33 34 35 36 37 38 39 40 41 42 43 44 45 46 47 48 49 50
000
ASUS43 KMKX 291700
RWRWI

WISCONSIN REGIONAL WEATHER ROUNDUP
NATIONAL WEATHER SERVICE MILWAUKEE/SULLIVAN WI
1200 PM CDT MON MAY 29 2017

NOTE: "FAIR" INDICATES FEW OR NO CLOUDS BELOW 12,000 FEET WITH NO
SIGNIFICANT WEATHER AND/OR OBSTRUCTIONS TO VISIBILITY.

WIZ001-002-006>008-014>016-023>028-291800-
NORTHWEST WISCONSIN

CITY           SKY/WX    TMP DP  RH WIND       PRES   REMARKS
SUPERIOR ARPT  NOT AVBL
ASHLAND        CLOUDY    58  48  69 W14       29.67R
HAYWARD        CLOUDY    56  46  69 W12G18    29.72R
SIREN          CLOUDY    57  48  70 W9G16     29.75S
CUMBERLAND     CLOUDY    52  48  87 W15G24    29.76R FOG
RICE LAKE      CLOUDY    55  48  79 W12       29.77R
CHETEK         CLOUDY    55  49  78 W8G16     29.76S
LADYSMITH      CLOUDY    56  49  77 W20       29.75R
EAU CLAIRE     NOT AVBL
MENOMONIE      CLOUDY    60  48  65 W14G21    29.78S
NEW RICHMOND   CLOUDY    56  47  72 W9        29.79R
OSCEOLA        CLOUDY    58  48  69 W12G18    29.81S
$$

WIZ003>005-009-010-017-018-291800-
NORTH CENTRAL WISCONSIN

CITY           SKY/WX    TMP DP  RH WIND       PRES   REMARKS
MANITOWISH WTR CLOUDY    56  53  92 W10G18    29.67R
ARBOR VITAE    LGT RAIN  57  53  86 W8G16     29.67S
WOODRUFF       LGT RAIN  57  53  86 W8G16     29.67S
RHINELANDER    CLOUDY    60  51  72 W12       29.69S
EAGLE RIVER    DRIZZLE   55  49  82 W13       29.67S
LAND O LAKES   CLOUDY    56  50  78 W8        29.67S
PHILLIPS       CLOUDY    53  49  85 W8        29.70R
TOMAHAWK       CLOUDY    55  49  79 SW9       29.71R
MEDFORD        CLOUDY    54  49  83 W15G22    29.73S
MERRILL        RAIN      53  52  95 W13G21    29.72R
$$

WIZ029-030-035-036-043>047-291800-
CENTRAL WISCONSIN

CITY           SKY/WX    TMP DP  RH WIND       PRES   REMARKS
WAUSAU         RAIN      52  50  93 W14       29.73R FOG
MOSINEE        CLOUDY    57  50  77 W17G25    29.74S
MARSHFIELD     CLOUDY    57  47  69 W17G28    29.75R
STEVENS POINT  PTSUNNY   54  51  89 W14G20    29.75F
WAUPACA        MOSUNNY   63  50  64 W21G26    29.75R
WAUTOMA        CLOUDY    62  48  60 W12G23    29.77
WISC RAPIDS    CLOUDY    60  49  66 W12       29.77S
CAMP DOUGLAS   NOT AVBL
$$

WIZ011>013-019>022-031-037>040-048>050-291800-
NORTHEAST WISCONSIN

CITY           SKY/WX    TMP DP  RH WIND       PRES   REMARKS
ANTIGO         CLOUDY    56  50  81 W14       29.71S
SHAWANO        CLOUDY    63  49  59 W16G24    29.70R
OCONTO         CLOUDY    62  48  61 W14G21    29.67R
STURGEON BAY   PTSUNNY   65  49  56 SW17G23   29.67S
GREEN BAY      MOSUNNY   65  53  65 W18G26    29.70R
MANITOWOC      NOT AVBL
APPLETON       PTSUNNY   61  46  59 W17G26    29.72R
CLINTONVILLE   CLOUDY    61  46  59 W20       29.71S
OSHKOSH        PTSUNNY   62  49  62 W13G26    29.74R
$$

WIZ032>034-041-042-053>061-291800-
SOUTHWEST WISCONSIN

CITY           SKY/WX    TMP DP  RH WIND       PRES   REMARKS
LA CROSSE      CLOUDY    62  47  57 W16       29.82R
SPARTA         CLOUDY    60  48  64 W14G21    29.81S
VIROQUA        CLOUDY    61  46  59 MISG      29.83R
BOSCOBEL       CLOUDY    65  45  48 W21G28    29.84R
PRAIRIE DU CHI PTSUNNY   65  43  44 W18G29    29.84S
PLATTEVILLE    PTSUNNY   66  47  50 W20G29    29.85R
$$

WIZ056-057-062-063-064-067-068-291800-
SOUTH CENTRAL WISCONSIN

CITY           SKY/WX    TMP DP  RH WIND       PRES   REMARKS
REEDSBURG      CLOUDY    61  47  58 W18G24    29.80R
BARABOO/DELLS  PTSUNNY   62  47  58 W9        29.80R
LONE ROCK      NOT AVBL
MINERAL POINT  MOSUNNY   64  45  48 W24G30    29.82S
MADISON        PTSUNNY   65  47  52 W12G24    29.80R
MIDDLETON      PTSUNNY   66  48  51 W23G32    29.81R
WATERTOWN      PTSUNNY   66  48  52 W16G23    29.78R
MONROE         PTSUNNY   64  45  48 W24G37    29.83R
JANESVILLE     NOT AVBL
$$

WIZ051-052-058>065-066-070>072-291800-
SOUTHEAST WISCONSIN

CITY           SKY/WX    TMP DP  RH WIND       PRES   REMARKS
MILWAUKEE      MOSUNNY   71  43  36 W23G35    29.77R
WAUKESHA       PTSUNNY   64  45  48 W17G25    29.79R
MILWAUKEE/TIMM SUNNY     68  41  37 W20G26    29.77R
RACINE         SUNNY     71  43  36 W20G30    29.79R
KENOSHA        SUNNY     71  46  40 W21G35    29.79R
FOND DU LAC    PTSUNNY   66  45  46 W21G28    29.75R
SHEBOYGAN      CLOUDY    63  50  62 W15G24    29.74R
WEST BEND      MOSUNNY   64  45  48 W23G30    29.74S
JUNEAU         PTSUNNY   62  47  57 W10G20    29.78R
$$

LSZ147-162-291800-
LAKE SUPERIOR

STATION/POSITION TIME  TEMP    WIND        PRES    WAVE
                       AIR SEA DIR/SP/G            HT/PER
                 (UTC) (F)     (DEG/KT/KT) (MB)    (FT/S)
W MID LAKE BUOY  1550   42 37  250/ 14/ 14 1002.5R   2/ 4
DEVILS ISLAND    1600   47     240/ 21/ 24 1003.9R
SAXON HARBOR     1630   55     300/  9/ 13 1004.4R
$$

LMZ867-665-643>646-291800-
LAKE MICHIGAN

STATION/POSITION TIME  TEMP    WIND        PRES    WAVE
                       AIR SEA DIR/SP/G            HT/PER
                 (UTC) (F)     (DEG/KT/KT) (MB)    (FT/S)
CHAMBERS ISLAND  1640   64     200/  6/ 10 1003.7R
N MID LAKE BUOY  1550   45 41  200/  8/ 10 1005.1R   1/ 4
NORTHPORT PIER   1640   65     240/  6/ 12 1003.7F
KEWAUNEE LAKESHO 1630   65     260/ 15/ 24 1005.0R
SHEBOYGAN LAKESH 1600   64     260/ 19/ 24 1006.0R
PORT WASHINGTON  1630   68     260/ 18/ 25 1007.8R
ATWATER BUOY     1509   63     240/ 16/ 19 1007.4R
MILWAUKEE LAKESH 1630   66     270/ 14/ 21   N/A
S MID LAKE BUOY  1550   52 47  230/ 10/ 10 1008.6R   1
KENOSHA   LAKESH 1600   70     260/ 19/ 30 1008.1
$$

TC  - TEMPERATURE IN CELSIUS
VSB - VISIBILITY IN STATUTE MILES
WCI - WIND CHILL INDEX
HX  - HEAT INDEX





USA.gov is the U.S. government's official web portal to all federal, state and local government web resources and services.